TimeGMT,TemperatureF,Dew PointF,Humidity,Sea Level PressureIn,VisibilityMPH,Wind Direction,Wind SpeedMPH,Gust SpeedMPH,PrecipitationIn,Events,Conditions,WindDirDegrees,DateUTC
12:50 AM,42.8,39.2,87,29.39,6.2,WSW,18.4,-,N/A,,Partly Cloudy,240,2012-12-24 00:50:00
1:50 AM,42.8,39.2,87,29.42,6.2,WSW,12.7,-,N/A,,Scattered Clouds,250,2012-12-24 01:50:00
2:50 AM,42,40,92,29.42,16,West,10.4,,,Rain,Light Rain Showers,260,2012-12-24 02:50:00
2:50 AM,42.8,41.0,93,29.39,6.2,West,10.4,-,N/A,,Partly Cloudy,260,2012-12-24 02:50:00
3:50 AM,44.6,41.0,87,29.39,6.2,WSW,17.3,-,N/A,Rain,Light Rain,240,2012-12-24 03:50:00
4:50 AM,42.8,39.2,87,29.39,6.2,WSW,15.0,-,N/A,,Partly Cloudy,250,2012-12-24 04:50:00
5:50 AM,43,40,84,29.38,19,WSW,15.0,,,,Partly Cloudy,240,2012-12-24 05:50:00
5:50 AM,42.8,39.2,87,29.36,6.2,WSW,15.0,-,N/A,,Partly Cloudy,240,2012-12-24 05:50:00
6:50 AM,42.8,39.2,87,29.39,6.2,SSW,6.9,-,N/A,,Scattered Clouds,210,2012-12-24 06:50:00
7:50 AM,42.8,39.2,87,29.39,6.2,SW,9.2,-,N/A,,Mostly Cloudy,220,2012-12-24 07:50:00
8:50 AM,43,40,83,29.39,22,SW,5.8,,,,Mostly Cloudy,220,2012-12-24 08:50:00
8:50 AM,42.8,39.2,87,29.39,6.2,SW,5.8,-,N/A,,Mostly Cloudy,220,2012-12-24 08:50:00
9:50 AM,41.0,39.2,93,29.36,6.2,SSE,3.5,-,N/A,,Mostly Cloudy,150,2012-12-24 09:50:00
10:50 AM,42.8,39.2,87,29.33,6.2,ESE,6.9,-,N/A,,Mostly Cloudy,110,2012-12-24 10:50:00
11:50 AM,43,40,85,29.32,14,SSE,2.3,,,Rain,Light Rain,150,2012-12-24 11:50:00
11:50 AM,42.8,39.2,87,29.30,6.2,SSE,2.3,-,N/A,Rain,Light Rain,150,2012-12-24 11:50:00
12:50 PM,42.8,41.0,93,29.27,6.2,ESE,2.3,-,N/A,Rain,Light Rain,120,2012-12-24 12:50:00
1:50 PM,44.6,42.8,93,29.24,6.2,South,2.3,-,N/A,Rain,Light Rain,180,2012-12-24 13:50:00
2:50 PM,44,42,89,29.21,9,South,8.1,,,Rain,Light Rain,190,2012-12-24 14:50:00
2:50 PM,44.6,42.8,93,29.21,6.2,South,8.1,-,N/A,Rain,Light Rain,190,2012-12-24 14:50:00
3:50 PM,44.6,41.0,87,29.18,6.2,South,8.1,-,N/A,Rain,Light Rain,190,2012-12-24 15:50:00
4:50 PM,42.8,41.0,93,29.18,6.2,WSW,3.5,-,N/A,,Mostly Cloudy,240,2012-12-24 16:50:00
5:50 PM,43,40,85,29.18,19,SW,10.4,,,,Partly Cloudy,230,2012-12-24 17:50:00
5:50 PM,42.8,39.2,87,29.18,6.2,SW,10.4,-,N/A,,Mostly Cloudy,230,2012-12-24 17:50:00
6:50 PM,42.8,39.2,87,29.15,6.2,WSW,9.2,-,N/A,,Overcast,240,2012-12-24 18:50:00
7:50 PM,41.0,39.2,93,29.15,6.2,WSW,6.9,-,N/A,,Mostly Cloudy,250,2012-12-24 19:50:00
8:50 PM,42,40,88,29.17,19,WSW,10.4,,,,Partly Cloudy,250,2012-12-24 20:50:00
8:50 PM,42.8,39.2,87,29.15,6.2,WSW,10.4,-,N/A,,Mostly Cloudy,250,2012-12-24 20:50:00
9:50 PM,41.0,39.2,93,29.15,6.2,WSW,5.8,-,N/A,,Mostly Cloudy,250,2012-12-24 21:50:00
10:50 PM,39.2,39.2,100,29.15,6.2,West,9.2,-,N/A,,Mostly Cloudy,260,2012-12-24 22:50:00
11:50 PM,39,37,92,29.17,16,West,9.2,,,,Scattered Clouds,260,2012-12-24 23:50:00
11:50 PM,39.2,37.4,93,29.15,6.2,West,9.2,-,N/A,,Partly Cloudy,260,2012-12-24 23:50:00